Weather History for KLAX - February, 2014

Change the Weather History Date:

Monday, February 24, 2014

  Actual Average Record
Temperature  
Mean Temperature 59 °F 57 °F  
Max Temperature 65 °F 64 °F 87 °F (1986)
Min Temperature 53 °F 51 °F 40 °F (1987)
Degree Days  
Heating Degree Days 6 8  
Month to date heating degree days 127 192  
Since 1 July heating degree days 541 896  
Cooling Degree Days 0 0  
Month to date cooling degree days 0 0  
Year to date cooling degree days 16 4  
Growing Degree Days 8 (Base 50)    
Moisture  
Dew Point 52 °F    
Average Humidity 76    
Maximum Humidity 89    
Minimum Humidity 63    
Precipitation  
Precipitation 0.00 in 0.12 in 0.75 in (2008)
Month to date precipitation 0.23 2.82  
Year to date precipitation 0.23 5.53  
Since 1 July precipitation 1.27  
Sea Level Pressure  
Sea Level Pressure 29.99 in    
Wind  
Wind Speed 6 mph (West)    
Max Wind Speed 14 mph    
Max Gust Speed 17 mph    
Visibility 7 miles    
Events Fog    
T = Trace of Precipitation, MM = Missing Value Source: NWS Daily Summary

Daily Weather History Graph

Daily Weather History Graph

Search for Another Location

Airport or City:

Trip Planner

Search our weather history database for the weather conditions in past years. The results will help you decide how hot, cold, wet, or windy it might be!

Date:

Astronomy

Feb. 24, 2014 Rise Set
Actual Time 6:28 AM PST 5:45 PM PST
Civil Twilight 6:02 AM PST 6:11 PM PST
Nautical Twilight 5:33 AM PST 6:40 PM PST
Astronomical Twilight 5:04 AM PST 7:09 PM PST
Moon 2:23 AM PST (2/24) 1:00 PM PST (2/24)
Length of Visible Light 12h 08m
Length of Day
11h 17m
Waning Crescent, 27% of the Moon is Illuminated
Feb 24
Waning Crescent
Mar 1
New
Mar 8
First Quarter
Mar 16
Full
Mar 23
Last Quarter

Hourly Weather History & Observations

Time (PST) Temp. Dew Point Humidity Pressure Visibility Wind Dir Wind Speed Gust Speed Precip Events Conditions
12:53 AM 59.0 °F 52.0 °F 78% 30.01 in 9.0 mi ENE 4.6 mph - N/A   Mostly Cloudy
1:53 AM 57.0 °F 51.1 °F 81% 30.00 in 9.0 mi East 4.6 mph - N/A   Mostly Cloudy
2:19 AM 57.2 °F 51.8 °F 82% 29.99 in 6.0 mi Calm Calm - N/A Fog Patches of Fog
2:53 AM 55.9 °F 50.0 °F 80% 29.98 in 5.0 mi Calm Calm - N/A Fog Patches of Fog
3:53 AM 55.9 °F 50.0 °F 80% 29.98 in 4.0 mi Variable 3.5 mph - N/A Fog Patches of Fog
4:53 AM 55.0 °F 51.1 °F 86% 29.97 in 3.0 mi NNE 4.6 mph - N/A Fog Patches of Fog
5:53 AM 54.0 °F 50.0 °F 86% 29.98 in 3.0 mi Calm Calm - N/A Fog Patches of Fog
6:29 AM 55.4 °F 51.8 °F 88% 29.98 in 2.5 mi NE 3.5 mph - N/A Fog Patches of Fog
6:53 AM 55.0 °F 51.1 °F 86% 29.98 in 2.5 mi ENE 4.6 mph - N/A Fog Patches of Fog
7:46 AM 57.2 °F 53.6 °F 88% 29.99 in 3.0 mi Calm Calm - N/A Fog Patches of Fog
7:53 AM 57.9 °F 53.1 °F 84% 29.99 in 3.0 mi Calm Calm - N/A Fog Patches of Fog
8:53 AM 61.0 °F 51.1 °F 70% 30.00 in 4.0 mi Calm Calm - N/A   Scattered Clouds
9:53 AM 63.0 °F 51.1 °F 65% 30.00 in 5.0 mi Calm Calm - N/A   Haze
10:53 AM 64.0 °F 51.1 °F 63% 30.00 in 5.0 mi West 6.9 mph - N/A   Haze
11:53 AM 64.0 °F 52.0 °F 65% 29.98 in 7.0 mi West 9.2 mph - N/A   Clear
12:53 PM 64.0 °F 52.0 °F 65% 29.96 in 8.0 mi West 11.5 mph - N/A   Clear
1:53 PM 63.0 °F 53.1 °F 70% 29.96 in 6.0 mi West 12.7 mph - N/A   Haze
2:53 PM 62.1 °F 52.0 °F 70% 29.95 in 7.0 mi West 11.5 mph - N/A   Partly Cloudy
3:53 PM 61.0 °F 52.0 °F 72% 29.94 in 7.0 mi West 10.4 mph - N/A   Partly Cloudy
4:53 PM 60.1 °F 52.0 °F 75% 29.95 in 8.0 mi West 10.4 mph - N/A   Partly Cloudy
5:53 PM 59.0 °F 53.1 °F 81% 29.96 in 7.0 mi West 10.4 mph - N/A   Scattered Clouds
6:53 PM 57.9 °F 53.1 °F 84% 29.97 in 9.0 mi West 9.2 mph - N/A   Partly Cloudy
7:53 PM 57.9 °F 53.1 °F 84% 29.98 in 9.0 mi West 4.6 mph - N/A   Partly Cloudy
8:53 PM 57.9 °F 53.1 °F 84% 30.02 in 9.0 mi WSW 8.1 mph - N/A   Mostly Cloudy
9:53 PM 59.0 °F 53.1 °F 81% 30.03 in 10.0 mi West 4.6 mph - N/A   Overcast
10:17 PM 59.0 °F 53.6 °F 82% 30.04 in 10.0 mi SW 4.6 mph - N/A   Overcast
10:53 PM 59.0 °F 53.1 °F 81% 30.04 in 10.0 mi WSW 3.5 mph - N/A   Overcast
11:10 PM 59.0 °F 53.6 °F 82% 30.04 in 10.0 mi Calm Calm - N/A   Mostly Cloudy
11:49 PM 59.0 °F 51.8 °F 77% 30.04 in 10.0 mi NNW 3.5 mph - N/A   Mostly Cloudy
11:53 PM 59.0 °F 52.0 °F 78% 30.04 in 10.0 mi Calm Calm - N/A   Mostly Cloudy